SCS-01 L (63992 NORAD) Tracking and Keplerian Element Data

This shows tracking and keplerian element data for the satellite.

Feedback or suggestion? Click here.




ElementValue
Catalog63992
NameSCS-01 L
Epoch Orbit3342
Epoch Day354.25581154
Epoch Year2025
RAAN66.0562
Inclination97.3884
Eccentricity0.0011948
Argument of Perigee196.5363
Mean Anonmoly163.5484
Mean Motion15.19447032
Decay Rate0.00013875
L11 63992U 25100L 25354.25581154 .00013875 00000+0 65586-3 0 9993
L22 63992 97.3884 66.0562 0011948 196.5363 163.5484 15.19447032 33420



Live tracking and technical data element details for SCS-01 L (NORAD 63992). SCS-01 L can be tracked NOW for your location showing map with azimuth and elevation plus other details from your city location.







IsCatalogInMostPopularTable: catalog: 63992, numindb: 9
Update: records affected: 1



GetName: 63992 SCS-01 L

Hit Count: updated at: Tue, 21 Apr 2026 19:37:06 GMT